This is the latest recevied weather packets stored in our database for station/object KJ5SC. If no packets are shown the sender has not sent any weather packets the latest 10 day(s).
| Time | Temp. | Humidity | Pressure | Rain* | Wind** | Luminosity | Snow |
|---|---|---|---|---|---|---|---|
| 1787779066 | 37.22° C | 40% | 1016.2 hPa | 0 mm | - | 146 W/m² | - |
| 1787778761 | 37.22° C | 39% | 1016.2 hPa | 0 mm | - | 84 W/m² | - |
| 1787778457 | 37.22° C | 42% | 1016.2 hPa | 0 mm | - | 101 W/m² | - |
| 1787778152 | 37.78° C | 39% | 1016.3 hPa | 0 mm | - | 83 W/m² | - |
| 1787777852 | 37.78° C | 42% | 1016.5 hPa | 0 mm | - | 87 W/m² | - |
| 1787777548 | 38.33° C | 42% | 1016.5 hPa | 0 mm | - | 86 W/m² | - |
| 1787777248 | 38.33° C | 39% | 1016.6 hPa | 0 mm | - | 100 W/m² | - |
| 1787776947 | 37.78° C | 41% | 1016.5 hPa | 0 mm | - | 90 W/m² | - |
| 1787776647 | 37.78° C | 43% | 1016.8 hPa | 0 mm | - | 95 W/m² | - |
| 1787776346 | 37.78° C | 41% | 1016.9 hPa | 0 mm | - | 105 W/m² | - |
| 1787776044 | 38.33° C | 41% | 1016.8 hPa | 0 mm | - | 111 W/m² | - |
| 1787775739 | 38.33° C | 40% | 1017 hPa | 0 mm | - | 116 W/m² | - |
| 1787775438 | 38.33° C | 41% | 1017 hPa | 0 mm | - | 128 W/m² | - |
| 1787775136 | 38.33° C | 40% | 1017 hPa | 0 mm | - | 112 W/m² | - |
| 1787774831 | 38.89° C | 39% | 1017.1 hPa | 0 mm | - | 115 W/m² | - |
| 1787774531 | 38.33° C | 38% | 1017.2 hPa | 0 mm | - | 117 W/m² | - |
| 1787774230 | 38.33° C | 39% | 1017.2 hPa | 0 mm | - | 141 W/m² | - |
| 1787773929 | 38.89° C | 40% | 1017.5 hPa | 0 mm | - | 638 W/m² | - |
| 1787773628 | 38.89° C | 39% | 1017.5 hPa | 0 mm | - | 651 W/m² | - |
| 1787773324 | 38.33° C | 40% | 1017.4 hPa | 0 mm | - | 656 W/m² | - |
| 1787773019 | 38.33° C | 40% | 1017.4 hPa | 0 mm | - | 675 W/m² | - |
| 1787772715 | 37.78° C | 39% | 1017.4 hPa | 0 mm | - | 684 W/m² | - |
| 1787772413 | 37.78° C | 40% | 1017.4 hPa | 0 mm | - | 700 W/m² | - |
| 1787772113 | 38.33° C | 39% | 1017.6 hPa | 0 mm | - | 701 W/m² | - |
| 1787771813 | 37.78° C | 43% | 1017.7 hPa | 0 mm | - | 712 W/m² | - |
* Rain latest hour (hover to see other rain measurements)
** Current wind speed in m/s (hover to see current wind gust speed)